Home   Weather   Lancy   Past weeks

Flag for Switzerland Past Weather in Lancy, Geneva, Switzerland — Yesterday and Last 2 Weeks

55 °F

Light rain. Broken clouds.

Feels Like: 53 °F
Forecast: 54 / 64 °F
Wind: 8 mph from Northeast

Location: Geneva Cointrin Airport

Current Time: Oct 25, 2016 at 12:17:52 PM

Latest Report: Oct 25, 2016 at 11:50 AM

Visibility: 4 mi

Pressure: 30.18 "Hg

Humidity: 100%

Dew Point: 55 °F

Location of LancyLocation

Past Weather in Lancy — Graph


Lancy Temperature Yesterday

Maximum temperature yesterday: 57 °F (at 2:50 PM)
Minimum temperature yesterday: 46 °F (at 12:20 AM)
Average temperature yesterday: 51 °F

High & Low Weather Summary for the Past Weeks

High64 °F (Oct 15, 2:50 PM)100% (Oct 14, 12:20 AM)30.27 "Hg (Oct 14, 12:20 AM)
Low32 °F (Oct 22, 5:50 AM)51% (Oct 11, 2:20 PM)29.65 "Hg (Oct 14, 3:50 PM)
Average48 °F85%30.02 "Hg
* Reported Oct 10 10:20 AM — Oct 25 10:50 AM, Lancy, Weather by CustomWeather, © 2016

Note: Actual official high and low records may vary slightly from our data, if they occured in-between our weather recording intervals... More about our weather records


Lancy Weather History for the Previous 24 Hours

Scroll right to see more
Time TempWeatherWind HumidityBarometerVisibility
10:50 AM
Tue, Oct 25
55 °FThundershowers. Fog.6 mph100%30.18 "Hg4 mi
10:20 AM55 °FRain. Partly sunny.3 mph100%30.18 "Hg2 mi
9:50 AM55 °FHeavy rain. Fog.5 mph100%30.18 "Hg2 mi
9:20 AM55 °FRain. Mostly cloudy.6 mph100%30.15 "Hg3 mi
8:50 AM55 °FFog.5 mph100%30.15 "Hg3 mi
8:20 AM55 °FThundershowers. Fog.5 mph100%30.15 "Hg3 mi
7:50 AM55 °FThunderstorms. Mostly cloudy.7 mph100%30.12 "Hg3 mi
7:20 AM55 °FFog.7 mph100%30.15 "Hg2 mi
6:50 AM55 °FThundershowers. Fog.7 mph100%30.12 "Hg2 mi
6:20 AM55 °FRain. Fog.6 mph100%30.12 "Hg2 mi
5:50 AM54 °FLight rain. Fog.3 mph100%30.12 "Hg2 mi
5:20 AM54 °FFog.2 mph100%30.12 "Hg1 mi
4:50 AM54 °FFog.3 mph100%30.09 "Hg1 mi
4:20 AM54 °FPassing clouds.3 mph100%30.09 "Hg1 mi
3:50 AM54 °FPartly cloudy.2 mph100%30.09 "Hg1 mi
3:20 AM54 °FFog.2 mph100%30.09 "Hg1 mi
2:50 AM54 °FFog.2 mph100%30.09 "Hg1 mi
2:20 AM54 °FFog.1 mph100%30.09 "Hg1 mi
1:50 AM52 °FFog.2 mph100%30.09 "Hg1 mi
1:20 AM54 °FFog.1 mph100%30.09 "Hg2 mi
12:50 AM54 °FThunderstorms. Partly cloudy.6 mph100%30.07 "Hg2 mi
12:20 AM52 °FThunderstorms. Partly cloudy.5 mph100%30.04 "Hg2 mi
11:50 PM
Mon, Oct 24
52 °FPassing clouds.1 mph100%30.04 "Hg1 mi
11:20 PM52 °FPassing clouds.2 mph100%30.04 "Hg3 mi
10:50 PM52 °FLight rain. Passing clouds.3 mph100%30.04 "Hg5 mi
10:20 PM52 °FPassing clouds.1 mph94%30.01 "HgN/A
9:50 PM50 °FPartly cloudy.1 mph100%30.01 "HgN/A
9:20 PM50 °FPartly cloudy.2 mph100%30.01 "HgN/A
8:50 PM52 °FClear.2 mph94%30.01 "Hg10 mi
8:20 PM52 °FClear.1 mph94%30.01 "Hg10 mi
7:50 PM54 °FPartly cloudy.2 mph94%29.98 "HgN/A
7:20 PM54 °FPartly cloudy.1 mph94%29.98 "HgN/A
6:50 PM54 °FPassing clouds.1 mph88%29.98 "HgN/A
6:20 PM55 °FPartly sunny.2 mph88%29.98 "HgN/A
5:50 PM57 °FPartly sunny.2 mph82%29.98 "HgN/A
5:20 PM57 °FPartly sunny.2 mph77%29.95 "HgN/A
4:50 PM57 °FBroken clouds.2 mph77%29.95 "HgN/A
4:20 PM57 °FBroken clouds.2 mph72%29.95 "HgN/A
3:50 PM57 °FBroken clouds.3 mph77%29.95 "HgN/A
3:20 PM57 °FPartly sunny.3 mph77%29.95 "HgN/A
2:50 PM57 °FPartly sunny.2 mph77%29.95 "Hg6 mi
2:20 PM55 °FPartly sunny.3 mph82%29.95 "Hg5 mi
1:50 PM55 °FPartly sunny.2 mph82%29.95 "Hg4 mi
1:20 PM54 °FFog.1 mph88%29.98 "Hg3 mi
12:50 PM52 °FFog.1 mph88%29.98 "Hg3 mi
12:20 PM52 °FFog.2 mph88%29.98 "Hg3 mi
Weather by CustomWeather, © 2016

See weather overviewHow to use our weather pages